sat.trackr.live / text

‹ back to catalog

STARLINK-36182

NORAD 67192 · 2025-304A

PAYLOAD ACTIVE UNKNOWN

§ Identity

Operator
Country
US
Launch date
2025-12-17
Launch site
AFWTR
Launch vehicle
Mass (kg)
RCS (m²)

Purposes: comms

External: N2YO · Heavens-Above · Gunter

§ Orbital elements

Epoch: 2026-09-19T19:42:58.702464Z

Period
96.11 min
Inclination
70.0015°
Eccentricity
0.0003120
Mean motion
14.98322965 rev/d
Perigee alt
569.9 km
Apogee alt
574.2 km
Semi-major
6,950.2 km
B*
-1.9811e-4
RAAN
44.9926°
Arg perigee
270.8533°
Mean anomaly
89.2268°
Rev number
4,293

§ Raw data

STARLINK-361821 67192U 25304A   26262.82151276 -.00002456  00000+0 -19811-3 0  99902 67192  70.0015  44.9926 0003120 270.8533  89.2268 14.98322965 42930

JSON: /api/v1/satellites/67192 · /tle

For live sub-satellite position, see the globe view (requires WebGL).

§ Visibility from observer

Set your observer location to see the next 7 days of passes ≥ 10°. The values pass through the URL so the page stays shareable.

No JS? Fill the form by hand. The geolocation button needs JavaScript.